weather.gov     
National Weather Service

Regional Weather Roundup
NWS Homepage
This page is being discontinued on March 12, 2014.
The same data is available at this site. Please update your bookmarks.
Thank you, and we apologize for the inconvenience.
Please send an email to SR-SRH.Webmaster@noaa.gov with any concerns.


Current Version
Previous Version:    01  02  03  04  05  06  07  08  09  10  11  12  13  14  15  16  17  18  19  20  21  22  23  24  25  26  27  28  29  30  
   31  32  33  34  35  36  37  38  39  40  41  42  43  44  45  46  47  48  49  50  51  52  53  54  55  56  57  58  59  60  
[Printable]
402
ASUS44 KFWD 251815
RWRTX
NORTH TEXAS HOURLY WEATHER ROUNDUP
NATIONAL WEATHER SERVICE FORT WORTH TX
1200 PM CST SUN JAN 25 2015

NOTE: "FAIR" INDICATES FEW OR NO CLOUDS BELOW 12,000 FEET WITH NO
SIGNIFICANT WEATHER AND/OR OBSTRUCTIONS TO VISIBILITY.

TXZ118-119-251900-
DALLAS/FORT WORTH METROPLEX

CITY           SKY/WX    TMP DP  RH WIND       PRES   REMARKS
DFW AIRPORT    MOSUNNY   62  30  29 NW26G37   30.02F
6HR MIN TEMP:  46; 6HR MAX TEMP:  63;

DALLAS LOVE    MOSUNNY   63  29  27 NW22G30   30.02F
6HR MIN TEMP:  38; 6HR MAX TEMP:  64;

FTW MEACHAM    SUNNY     63  29  27 NW24G32   30.05F
6HR MIN TEMP:  45; 6HR MAX TEMP:  63;

DAL-EXECUTIVE  SUNNY     65  33  30 NW17G25   30.02F
6HR MIN TEMP:  47; 6HR MAX TEMP:  65;

FTW-ALLIANCE   MOSUNNY   62  27  26 NW23G37   30.04F
6HR MIN TEMP:  43; 6HR MAX TEMP:  62; 6HR PCP: TRACE;

FTW-SPINKS     SUNNY     63  32  31 NW15G29   30.08F
ARLINGTON      SUNNY     64  28  25 NW18G28   30.05F
6HR MIN TEMP:  46; 6HR MAX TEMP:  64;

GRAND PRAIRIE  SUNNY     61  36  39 NW7       30.06F
ADDISON        SUNNY     61  28  29 NW21G31   30.05F
MESQUITE       SUNNY     61  32  33 NW17G142  30.02F
LANCASTER      SUNNY     60  34  38 NW17G24   30.04F
6HR MIN TEMP:  45; 6HR MAX TEMP:  60;

$$

TXZ091>094-102>105-117-120-121-131>134-251900-
NORTH CENTRAL TEXAS

CITY           SKY/WX    TMP DP  RH WIND       PRES   REMARKS
SHRMAN/DENISON SUNNY     59  35  41 NW24G32   30.02F
6HR MIN TEMP:  38; 6HR MAX TEMP:  59;

GAINESVILLE    SUNNY     59  30  33 W23G32    30.06S
6HR MIN TEMP:  41; 6HR MAX TEMP:  59;

BOWIE          SUNNY     58  28  31 NW24G31   30.07S
6HR MIN TEMP:  40; 6HR MAX TEMP:  59;

BRIDGEPORT     SUNNY     60  32  35 NW17G24   30.10F
6HR MIN TEMP:  43; 6HR MAX TEMP:  60;

DECATUR        SUNNY     60  26  27 NW21G28   30.07F
6HR MIN TEMP:  40; 6HR MAX TEMP:  60;

DENTON         SUNNY     61  29  29 NW20G29   30.04F
6HR MIN TEMP:  42; 6HR MAX TEMP:  62;

MCKINNEY       SUNNY     60  33  36 NW22G33   30.02F
6HR MIN TEMP:  44; 6HR MAX TEMP:  60;

GREENVILLE     SUNNY     61  32  33 NW21G29   29.99F
ROCKWALL       SUNNY     61  32  34 NW23G32   30.00F
6HR MIN TEMP:  43; 6HR MAX TEMP:  62;

TERRELL        SUNNY     62  36  37 NW20G26   30.01F
6HR MIN TEMP:  38; 6HR MAX TEMP:  62;

WAXAHACHIE     SUNNY     61  36  39 NW16G24   30.05F
6HR MIN TEMP:  43; 6HR MAX TEMP:  61;

CLEBURNE       SUNNY     63  28  27 NW22G30   30.08F
GRANBURY       SUNNY     62  34  35 NW18G25   30.10F
6HR MIN TEMP:  43; 6HR MAX TEMP:  62;

$$

TXZ083>090-098>101-113>116-127>130-139>142-154-155-251900-
WESTERN NORTH TEXAS

CITY           SKY/WX    TMP DP  RH WIND       PRES   REMARKS
WICHITA FALLS  SUNNY     58  31  35 NW26G32   30.10S
6HR MIN TEMP:  42; 6HR MAX TEMP:  58;

WF-KICKAPOO    SUNNY     51  21  31 NW17G28   30.12S
6HR MIN TEMP:  39; 6HR MAX TEMP:  51;

VERNON         SUNNY     60  19  20 NW22G28   30.14F
6HR MIN TEMP:  31; 6HR MAX TEMP:  67;

ABILENE        SUNNY     58  31  35 N10       30.19R
6HR MIN TEMP:  38; 6HR MAX TEMP:  58;

ABILENE-DYESS  SUNNY     57  33  41 N12       30.18S
6HR MIN TEMP:  40; 6HR MAX TEMP:  57;

BRECKENRIDGE   SUNNY     61  27  27 N16G25    30.14R
6HR MIN TEMP:  40; 6HR MAX TEMP:  62;

GRAHAM         SUNNY     60  31  32 NW20G25   30.11R
6HR MIN TEMP:  38; 6HR MAX TEMP:  60;

MINERAL WELLS  SUNNY     62  26  25 N21       30.08F
6HR MIN TEMP:  41; 6HR MAX TEMP:  62;

STEPHENVILLE   SUNNY     60  30  32 NW16G22   30.14S
6HR MIN TEMP:  43; 6HR MAX TEMP:  60;

COMANCHE       MOSUNNY   59  34  39 N15G21    30.14F
6HR MIN TEMP:  44; 6HR MAX TEMP:  59;

BROWNWOOD      MOSUNNY   61  28  29 N16G25    30.15S
COLEMAN        MOSUNNY   59  36  42 N15       30.17S
6HR MIN TEMP:  45; 6HR MAX TEMP:  59;

BRADY          SUNNY     61  34  36 N15       30.15S
$$

TXZ143>147-156>162-174-175-251900-
CENTRAL TEXAS

CITY           SKY/WX    TMP DP  RH WIND       PRES   REMARKS
WACO           SUNNY     61  38  42 NW15      30.08S
6HR MIN TEMP:  34; 6HR MAX TEMP:  61;

WACO-TSTC      SUNNY     64  39  39 N14G21    30.08S
WACO-MCGREGOR  SUNNY     63  43  48 N21G28    30.10S
6HR MIN TEMP:  39; 6HR MAX TEMP:  63;

HILLSBORO      SUNNY     63  35  34 NW18      30.07F
6HR MIN TEMP:  35; 6HR MAX TEMP:  63;

CORSICANA      SUNNY     63  35  35 NW17G25   30.04F
6HR MIN TEMP:  41; 6HR MAX TEMP:  63;

MEXIA          SUNNY     62  40  44 NW14G20   30.05S
6HR MIN TEMP:  40; 6HR MAX TEMP:  62;

HEARNE         SUNNY     62  41  45 N15       30.08S
6HR MIN TEMP:  33; 6HR MAX TEMP:  62;

CAMERON        SUNNY     63  43  46 N14       30.08F
6HR MIN TEMP:  41; 6HR MAX TEMP:  63;

TEMPLE         SUNNY     64  39  39 NW15G21   30.08S
6HR MIN TEMP:  39; 6HR MAX TEMP:  64;

KILLEEN        SUNNY     63  36  36 N17       30.09S
6HR MIN TEMP:  46; 6HR MAX TEMP:  63;

KILLEEN-SKYLRK SUNNY     63  37  39 N16G22    30.08F
6HR MIN TEMP:  43; 6HR MAX TEMP:  63;

FORT HOOD      SUNNY     63  36  36 MISG      30.09S
6HR MIN TEMP:  43; 6HR MAX TEMP:  63;

GATESVILLE     SUNNY     63  34  34 N16G25    30.12S
HAMILTON       SUNNY     62  32  32 N22G28    30.12S
6HR MIN TEMP:  45; 6HR MAX TEMP:  62;

LAMPASAS       SUNNY     62  35  36 N14       30.10S
6HR MIN TEMP:  43; 6HR MAX TEMP:  62;

$$

TXZ095>097-106>112-122>126-135>138-148>153-164>167-251900-
EAST TEXAS

CITY           SKY/WX    TMP DP  RH WIND       PRES   REMARKS
PARIS          SUNNY     59  36  41 NW23G30   29.96S
6HR MIN TEMP:  39; 6HR MAX TEMP:  59;

SULPHUR SPRNGS SUNNY     60  34  38 NW25      29.99F
6HR MIN TEMP:  40; 6HR MAX TEMP:  60;

MOUNT PLEASANT SUNNY     61  36  38 NW21G32   29.95S
6HR MIN TEMP:  41; 6HR MAX TEMP:  61;

GILMER         SUNNY     61  35  38 NW13G23   29.94F
6HR MIN TEMP:  41; 6HR MAX TEMP:  61;

MINEOLA        SUNNY     63  32  31 W14G20    29.98F
TYLER          SUNNY     63  35  35 NW21G31   29.97F
6HR MIN TEMP:  43; 6HR MAX TEMP:  63;

LONGVIEW       SUNNY     63  37  38 W15G23    29.93F
6HR MIN TEMP:  41; 6HR MAX TEMP:  63;

MARSHALL       SUNNY     63  37  38 W10       29.93F
6HR MIN TEMP:  35; 6HR MAX TEMP:  63;

ATHENS         SUNNY     61  36  39 NW10G18   30.00F
PALESTINE      SUNNY     62  39  42 NW9G18    30.03F
HENDERSON      SUNNY     63  36  36 NW12G20   29.96F
6HR MIN TEMP:  33; 6HR MAX TEMP:  63;

NACOGDOCHES    SUNNY     63  41  45 NW16G22   29.99F
6HR MIN TEMP:  37; 6HR MAX TEMP:  63;

LUFKIN         SUNNY     65  41  41 NW9       29.99F
6HR MIN TEMP:  38; 6HR MAX TEMP:  65;

$$

SUPPLEMENTAL OBSERVATIONS (CENTRAL)

CITY           SKY/WX    TMP DP  RH WIND       PRES   REMARKS
LAKE TEXOMA      N/A     54  32  43 NW26        N/A
CADDO GRASSLND   N/A     63  32  31 NW13G26     N/A
PAT MAYSE LAKE   N/A     57  32  38 W20         N/A
GREENVILLE       N/A     61  34  36 NW18G30     N/A
CEDAR HILL       N/A     64  32  29 NW10G18     N/A
ATHENS           N/A     64  34  32 NW6G20      N/A
PALESTINE        N/A     64  36  34 NW9G18      N/A
LAKE LIMESTONE   N/A     64  36  34 N14G22      N/A
MCGREGOR         N/A     64  36  34 N14G23      N/A
TEMPLE           N/A     63  37  39 NW2G13      N/A




U.S. Dept. of Commerce
NOAA National Weather Service
1325 East West Highway
Silver Spring, MD 20910
E-mail: w-nws.webmaster@noaa.gov
Page last modified: May 16, 2007
NATIONAL WEATHER SERVICE: for Safety, for Work, for Fun - FOR LIFE